Location: Astronight Observatory
(42.6003°N, 71.2981°W)
Time: 21:42:36
(UTC-04:00)

Daily predictions for brighter satellites

Satellite Brightness Start Highest point End
(mag) Time Altitude Azimuth Time Altitude Azimuth Time Altitude Azimuth
NOSS 3-4 (A) 4.3 20:51:29 10° NW 20:58:27 62° WSW 21:05:51 10° SSE
NOSS 3-4 (C) 4.3 20:51:34 10° NW 20:58:32 62° WSW 21:05:56 10° SSE
Cosmos 2297 Rocket 2.9 20:53:23 10° SW 20:58:57 61° WNW 21:04:35 10° NNE
Cosmos 1842 Rocket 4.3 20:54:47 10° NNW 20:59:06 56° W 21:03:20 10° S
Cosmos 1605 Rocket 4.4 20:54:30 10° NNW 21:00:43 69° W 21:06:59 10° S
Cosmos 1356 Rocket 4.1 20:57:25 10° SSE 21:01:21 38° E 21:05:21 10° NNE
H-2A R/B 3.6 20:59:29 10° ESE 21:03:35 23° ENE 21:07:44 10° NNE
Cosmos 1741 Rocket 4.0 21:01:24 10° SSW 21:06:42 74° ESE 21:12:00 10° NNE
Cosmos 2263 Rocket 4.0 21:06:30 10° ESE 21:08:30 12° E 21:10:30 10° ENE
Cosmos 1818 3.7 21:03:09 10° NW 21:08:38 85° WSW 21:14:03 10° SSE
YAOGAN 6 2.6 21:05:44 10° SSE 21:09:21 88° E 21:13:04 10° NNW
Meteor 1-21 Rocket 4.4 21:05:22 10° S 21:10:51 52° E 21:16:15 10° NNE
ATLAS 5 CENTAUR R/B 1.9 21:07:13 10° SW 21:11:52 86° NW 21:16:58 10° NE
Cosmos 1726 3.5 21:11:35 10° NNE 21:14:36 23° ENE 21:17:27 11° SE
RESURS DK-1 3.4 21:13:29 10° N 21:17:20 34° ENE 21:20:58 11° ESE
Cosmos 1300 4.3 21:14:53 10° NNE 21:17:51 21° ENE 21:20:36 11° ESE
Cosmos 1076 Rocket 3.6 21:15:18 10° S 21:19:38 66° E 21:23:57 10° NNE
Cosmos 1802 Rocket 4.1 21:14:30 10° N 21:20:35 58° E 21:26:37 10° SSE
Cosmos 1408 Rocket 3.9 21:18:56 10° SSE 21:23:00 43° E 21:27:06 10° NNE
Cosmos 2237 Rocket 4.2 21:22:47 10° NW 21:27:07 23° W 21:31:28 10° SSW
ERBS 3.7 21:27:09 10° NNW 21:30:11 30° NE 21:33:11 10° E
Cosmos 1939 Rocket 4.5 21:27:22 10° SSW 21:31:00 33° W 21:34:43 10° NNW
Cosmos 2221 3.1 21:28:40 10° NNW 21:32:59 58° W 21:37:18 10° S
Cosmos 1340 Rocket 4.4 21:29:44 10° SW 21:33:29 37° WNW 21:37:17 10° N
CZ-4B DEB 4.3 21:32:14 10° SSW 21:34:53 29° W 21:37:34 10° NW
Cosmos 1603 3.9 21:30:10 10° NNW 21:35:48 62° ENE 21:40:30 15° SE
Meteor 1-29 4.4 21:34:45 10° N 21:37:59 40° WNW 21:41:14 10° SW
Tiangong 1 0.7 21:36:54 10° W 21:39:42 84° N 21:42:16 12° E
Cosmos 371 Rocket 3.8 21:39:01 10° N 21:43:41 46° ENE 21:47:08 17° SE
Cosmos 1674 3.3 21:40:38 10° SSW 21:44:20 57° W 21:48:02 10° N
MetOp-A 4.2 21:40:22 10° SSE 21:45:43 84° WSW 21:51:07 10° NNW
Cosmos 2016 Rocket 4.0 21:40:55 10° N 21:47:12 79° E 21:52:56 12° SSE
ARGOS 3.2 21:42:43 13° SSE 21:47:39 80° ENE 21:53:05 10° NNW
Cosmos 841 Rocket 4.4 21:45:26 10° N 21:50:17 36° ENE 21:53:48 17° ESE
CZ-3B R/B 4.1 21:47:19 10° SW 21:50:28 85° SE 22:01:57 10° NE
Cosmos 1943 3.9 21:45:31 10° NNW 21:50:53 42° ENE 21:54:57 17° ESE
Cosmos 1455 4.5 21:49:26 10° NE 21:51:03 12° ENE 21:52:33 10° E
SPOT 5 2.9 21:47:02 15° SSE 21:51:06 78° ENE 21:56:14 10° N
Lacrosse 5 1.9 21:46:32 10° NW 21:51:38 85° NE 21:55:19 19° SE
Cosmos 1763 Rocket 4.0 21:47:06 10° N 21:52:02 46° ENE 21:55:27 19° SE
Cosmos 1908 4.3 21:48:30 10° NNW 21:52:11 42° W 21:55:49 10° SSW
SL-16 R/B 3.5 21:47:15 10° NW 21:52:20 35° WSW 21:57:24 10° SSW
SPOT 1/Viking Rocket 3.6 21:54:30 18° SSE 21:58:22 67° ENE 22:03:30 10° N
Cosmos 1766 Rocket 3.9 21:56:02 10° SSW 22:00:20 67° W 22:04:41 10° N
KORONAS-FOTON 4.5 21:57:49 10° SSW 22:01:32 53° W 22:05:16 10° N
Cosmos 1242 Rocket 4.2 22:00:18 10° NNW 22:03:36 31° W 22:06:54 10° SSW
Abrixas rocket 2.4 22:00:59 10° WNW 22:04:13 65° NNE 22:06:04 23° E
Cosmos 1328 Rocket 3.5 22:00:47 10° N 22:05:08 75° E 22:07:53 22° SSE
USA 245 3.6 22:07:27 20° S 22:09:44 60° W 22:13:55 10° NNW
Cosmos 1515 Rocket 3.6 22:06:45 10° N 22:11:04 62° E 22:13:24 26° SSE
Landsat 7 4.0 22:08:35 23° SE 22:11:26 60° ENE 22:16:08 10° N
Cosmos 2233 Rocket 4.3 22:05:28 10° N 22:11:33 53° ENE 22:15:24 22° SSE
Cosmos 1151 Rocket 3.4 22:07:20 10° N 22:11:36 48° ENE 22:13:43 26° SE
IGS 5A 4.2 22:11:57 24° ESE 22:13:51 38° ENE 22:17:44 10° N
USA 234 3.2 22:08:51 10° NE 22:15:24 75° SE 22:21:56 10° SW
H-2A R/B 3.0 22:13:53 22° ESE 22:15:51 34° ENE 22:19:41 10° N
Cosmos 1743 Rocket 3.4 22:13:15 18° S 22:16:25 82° E 22:20:45 10° N
Cosmos 2228 Rocket 3.2 22:14:39 10° N 22:19:16 84° W 22:22:04 23° S
Cosmos 1703 3.9 22:22:24 31° SE 22:23:34 39° E 22:27:19 10° NNE
SL-08 RB Rocket 4.3 22:21:53 18° S 22:25:06 53° W 22:29:38 10° NNW
Terra 2.0 22:24:01 28° SE 22:26:23 59° ENE 22:31:04 10° N
Meteor 1-11 4.3 22:23:46 19° S 22:27:57 72° E 22:33:46 10° NNE
H-2A ROCKET BODY 4.0 22:29:09 10° SSW 22:33:37 26° SSE 22:46:56 10° E
Cosmos 1503 Rocket 4.2 22:32:17 29° SSE 22:34:35 48° ESE 22:39:34 10° NNE
H-2A R/B 2.7 22:39:05 20° SSW 22:42:35 52° W 22:47:54 10° NNW
Meteor 1-27 4.2 22:36:45 10° N 22:42:37 87° W 22:45:45 29° S
Cosmos 304 Rocket 4.0 22:40:20 10° NNW 22:45:05 58° ENE 22:46:52 35° SE
Cosmos 1626 2.0 22:44:38 47° S 22:45:37 79° E 22:49:21 10° N
Cosmos 2058 2.9 22:44:53 33° S 22:46:45 85° W 22:51:00 10° N
Cosmos 1726 4.3 22:47:00 10° NW 22:49:46 20° W 22:52:04 12° SW
CZ-4B R/B 4.0 22:44:49 10° NNE 22:49:53 45° E 22:51:29 35° SE
Cosmos 2263 Rocket 2.1 22:46:57 16° SSW 22:51:32 89° WNW 22:57:09 10° NNE
Cosmos 540 Rocket 3.7 22:46:29 10° NNW 22:51:36 58° ENE 22:53:35 35° SE
RESURS DK-1 4.3 22:51:59 10° NW 22:55:10 21° WSW 22:56:54 17° SW
Spot 4 4.0 22:55:05 38° SE 22:56:48 61° ENE 23:01:37 10° N
Cosmos 2285 Rocket 4.0 22:52:19 10° NNW 22:58:42 79° ENE 23:01:42 34° SSE
Sich 1 3.8 22:59:55 34° ESE 23:00:15 34° E 23:04:08 10° NNE
ERBS 3.7 23:03:51 10° WNW 23:06:28 27° WSW 23:06:28 27° WSW
deb Chang Zheng 4 3.5 23:03:40 10° NNE 23:08:03 87° WNW 23:09:31 42° SSW
PSLV R/B 3.4 23:09:22 60° NW 23:09:22 60° NW 23:11:49 10° NNW
ALOS 2 4.4 23:10:54 18° E 23:12:05 20° ENE 23:15:18 10° NNE
DELTA 2 DEB (DPAF) 4.2 23:11:06 49° SE 23:12:09 70° ENE 23:16:37 10° N
Cosmos 1707 Rocket 3.7 23:08:35 10° N 23:13:02 62° E 23:13:54 50° SE
Cosmos 2151 4.2 23:10:59 19° SW 23:13:30 37° WNW 23:17:32 10° N
CZ-2C R/B 4.3 23:12:52 25° ESE 23:15:14 34° ENE 23:20:16 10° N
Tiangong 1 3.1 23:12:31 10° W 23:13:23 18° W 23:13:23 18° W
Cosmos 1354 Rocket 4.2 23:16:06 25° SW 23:19:13 68° WNW 23:24:27 10° NNE
Cosmos 1844 Rocket 3.2 23:24:43 36° ESE 23:25:17 37° ESE 23:30:22 10° NE
Cosmos 1072 Rocket 4.5 23:19:04 10° N 23:25:25 86° W 23:28:03 39° S
Cosmos 1455 2.8 23:23:20 10° NNW 23:27:03 47° W 23:27:33 44° WSW
CZ-4C R/B 2.2 23:28:14 47° SSE 23:29:02 51° ESE 23:34:42 10° NE
Cosmos 1666 Rocket 3.5 23:28:28 62° SSE 23:29:07 76° E 23:33:35 10° NNE
Cosmos 1464 Rocket 3.9 23:24:12 10° N 23:30:23 86° W 23:32:45 41° S
Cosmos 1933 4.5 23:29:57 10° NNE 23:33:39 31° ENE 23:33:50 31° E
Lacrosse 5 3.7 23:30:54 10° W 23:33:58 16° WSW 23:34:30 16° SW
Cosmos 1869 3.2 23:33:49 10° N 23:37:46 76° W 23:37:55 75° WSW
Cosmos 1933 Rocket 4.5 23:38:43 34° E 23:38:43 34° E 23:42:36 10° NNE
Cosmos 1805 Rocket 4.1 23:39:13 41° SW 23:40:18 53° W 23:44:33 10° N
Cosmos 1633 Rocket 2.9 23:44:55 72° SSW 23:45:21 88° WNW 23:49:44 10° N
Cosmos 1315 Rocket 4.4 23:46:28 23° ENE 23:46:28 23° ENE 23:49:01 10° NE
CZ-4C R/B 3.9 23:46:43 50° SW 23:47:12 53° W 23:51:31 10° NNW
Cosmos 967 Rocket 4.5 23:41:48 10° NW 23:48:09 74° WSW 23:50:08 46° S
Cosmos 1400 Rocket 3.2 23:49:33 53° E 23:49:33 53° E 23:53:24 10° NNE
SL-24 R/B - RUBIN 2 4.2 23:43:57 10° NNW 23:49:27 61° NE 23:50:52 44° ESE
H-2A R/B 3.8 23:51:01 20° WSW 23:51:54 22° W 23:55:14 10° NW
SME Rocket 3.5 23:52:50 44° WSW 23:53:08 45° W 23:57:30 10° NNW
